Kansas City, MO

10:21 PM CST on January 23, 2017 (GMT -0600)
Kansas City Downtown

Weather History for KMKC - May, 2013

Change the Weather History Date:

Friday, May 17, 2013

  Actual Average Record
Temperature  
Mean Temperature 70 °F -  
Max Temperature 80 °F 74 °F 89 °F (1997)
Min Temperature 62 °F 55 °F 42 °F (2014)
Cooling Degree Days 6    
Growing Degree Days 20 (Base 50)    
Moisture  
Dew Point 60 °F    
Average Humidity 73    
Maximum Humidity 90    
Minimum Humidity 52    
Precipitation  
Precipitation 0.00 in - - ()
Sea Level Pressure  
Sea Level Pressure 29.89 in    
Wind  
Wind Speed 5 mph (SSE)    
Max Wind Speed 8 mph    
Max Gust Speed -    
Visibility 10 miles    
Events      
Averages and records for this station are not official NWS values.
T = Trace of Precipitation, MM = Missing Value Source: NWS Daily Summary

Daily Weather History Graph

Daily Weather History Graph

Search for Another Location

Airport or City:

Trip Planner

Search our weather history database for the weather conditions in past years. The results will help you decide how hot, cold, wet, or windy it might be!

Date:

Astronomy

May. 17, 2013 Rise Set
Actual Time 6:03 AM CDT 8:26 PM CDT
Civil Twilight 5:33 AM CDT 8:57 PM CDT
Nautical Twilight 4:55 AM CDT 9:34 PM CDT
Astronomical Twilight 4:14 AM CDT 10:16 PM CDT
Moon 12:35 PM CDT (5/17) 1:20 AM CDT (5/17)
Length of Visible Light 15h 24m
Length of Day
14h 23m
Waxing Crescent, 45% of the Moon is Illuminated
May 17
Waxing Crescent
May 17
First Quarter
May 24
Full
May 31
Last Quarter
Jun 8
New

Hourly Weather History & Observations

Time (CDT) Temp. Dew Point Humidity Pressure Visibility Wind Dir Wind Speed Gust Speed Precip Events Conditions
12:54 AM 66.0 °F 59.0 °F 78% 29.86 in 10.0 mi SSW 6.9 mph - N/A   Clear
1:54 AM 66.0 °F 59.0 °F 78% 29.85 in 10.0 mi South 8.1 mph - N/A   Clear
2:44 AM 64.4 °F 59.0 °F 83% 29.87 in 10.0 mi SSW 5.8 mph - N/A   Mostly Cloudy
2:54 AM 64.0 °F 59.0 °F 84% 29.85 in 10.0 mi SSW 5.8 mph - N/A   Mostly Cloudy
3:54 AM 64.9 °F 59.0 °F 81% 29.85 in 10.0 mi SSE 5.8 mph - N/A   Mostly Cloudy
4:08 AM 64.4 °F 59.0 °F 83% 29.87 in 10.0 mi SE 4.6 mph - N/A   Scattered Clouds
4:54 AM 63.0 °F 59.0 °F 87% 29.85 in 10.0 mi SSW 4.6 mph - N/A   Clear
5:42 AM 62.6 °F 59.0 °F 88% 29.87 in 10.0 mi SSW 5.8 mph - N/A   Partly Cloudy
5:54 AM 62.1 °F 59.0 °F 90% 29.86 in 10.0 mi SSW 5.8 mph - N/A   Scattered Clouds
6:16 AM 62.6 °F 59.0 °F 88% 29.88 in 10.0 mi SSW 5.8 mph - N/A   Mostly Cloudy
6:54 AM 64.0 °F 60.1 °F 87% 29.88 in 10.0 mi Calm Calm - N/A   Overcast
7:25 AM 64.4 °F 60.8 °F 88% 29.92 in 10.0 mi Calm Calm - N/A   Mostly Cloudy
7:54 AM 66.0 °F 60.1 °F 81% 29.91 in 10.0 mi East 3.5 mph - N/A   Overcast
8:26 AM 66.2 °F 60.8 °F 83% 29.94 in 10.0 mi Variable 3.5 mph - N/A   Overcast
8:51 AM 66.2 °F 60.8 °F 83% 29.94 in 10.0 mi Calm Calm - N/A   Overcast
8:54 AM 66.9 °F 60.1 °F 79% 29.93 in 10.0 mi Calm Calm - N/A   Overcast
9:54 AM 69.1 °F 61.0 °F 75% 29.92 in 10.0 mi ENE 3.5 mph - N/A   Overcast
10:54 AM 69.1 °F 60.1 °F 73% 29.92 in 10.0 mi Calm Calm - N/A   Overcast
11:54 AM 71.1 °F 60.1 °F 68% 29.92 in 10.0 mi ESE 4.6 mph - N/A   Overcast
12:06 PM 71.6 °F 60.8 °F 69% 29.94 in 10.0 mi ESE 4.6 mph - N/A   Overcast
12:54 PM 75.0 °F 61.0 °F 62% 29.91 in 10.0 mi Calm Calm - N/A   Mostly Cloudy
1:54 PM 75.2 °F 60.8 °F 61% 29.91 in 10.0 mi SSW 3.5 mph - N/A   Mostly Cloudy
2:54 PM 75.9 °F 59.0 °F 56% 29.89 in 10.0 mi Calm Calm - N/A   Overcast
3:54 PM 77.0 °F 59.0 °F 54% 29.88 in 10.0 mi Calm Calm - N/A   Overcast
4:54 PM 79.0 °F 60.1 °F 52% 29.86 in 10.0 mi SSW 4.6 mph - N/A   Overcast
5:54 PM 77.0 °F 57.9 °F 52% 29.86 in 10.0 mi East 5.8 mph - N/A   Mostly Cloudy
6:54 PM 78.1 °F 59.0 °F 52% 29.86 in 10.0 mi East 8.1 mph - N/A   Overcast
7:54 PM 75.9 °F 57.9 °F 54% 29.86 in 10.0 mi SE 6.9 mph - N/A   Clear
8:54 PM 73.0 °F 59.0 °F 61% 29.87 in 10.0 mi Variable 3.5 mph - N/A   Clear
9:54 PM 73.0 °F 59.0 °F 61% 29.88 in 10.0 mi ESE 4.6 mph - N/A   Clear
10:54 PM 70.0 °F 59.0 °F 68% 29.90 in 10.0 mi East 4.6 mph - N/A   Clear
11:54 PM 69.1 °F 59.0 °F 70% 29.90 in 10.0 mi ESE 3.5 mph - N/A   Clear